| time (UTC) | temp C | wind direction | speed KPH | gust KPH | rain 1hr cm | rain 24hr cm | rain mn cm | humidity % | barometer mb |
| 20260504044543 | 12 | 11 | 29.0 | 48.3 | 0.00 | 0.00 | 0.00 | 40 | 1010.3 |
| 20260504043048 | 12 | 35 | 35.4 | 51.5 | 0.00 | 0.00 | 0.00 | 41 | 1010.1 |
| 20260504041544 | 13 | 355 | 35.4 | 53.1 | 0.00 | 0.00 | 0.00 | 38 | 1009.7 |
| 20260504040044 | 13 | 50 | 20.9 | 30.6 | 0.00 | 0.00 | 0.00 | 37 | 1009.0 |
| 20260504034547 | 13 | 40 | 17.7 | 27.4 | 0.00 | 0.00 | 0.00 | 36 | 1008.7 |
| 20260504033039 | 13 | 36 | 20.9 | 35.4 | 0.00 | 0.00 | 0.00 | 36 | 1008.1 |
| 20260504031542 | 13 | 34 | 24.1 | 40.2 | 0.00 | 0.00 | 0.00 | 35 | 1008.0 |
| 20260504030038 | 14 | 40 | 27.4 | 43.5 | 0.00 | 0.00 | 0.00 | 34 | 1007.6 |
| 20260504024545 | 14 | 19 | 27.4 | 53.1 | 0.00 | 0.00 | 0.00 | 34 | 1007.2 |
| 20260504023037 | 15 | 38 | 22.5 | 48.3 | 0.00 | 0.00 | 0.00 | 33 | 1007.0 |
| 20260504021539 | 16 | 38 | 30.6 | 48.3 | 0.00 | 0.00 | 0.00 | 32 | 1006.7 |
| 20260504020038 | 17 | 13 | 25.7 | 38.6 | 0.00 | 0.00 | 0.00 | 32 | 1006.2 |
| 20260504014538 | 17 | 23 | 17.7 | 25.7 | 0.00 | 0.00 | 0.00 | 33 | 1005.9 |
| 20260504013047 | 18 | 17 | 20.9 | 32.2 | 0.00 | 0.00 | 0.00 | 31 | 1005.8 |
| 20260504011535 | 18 | 27 | 22.5 | 35.4 | 0.00 | 0.00 | 0.00 | 30 | 1005.7 |
| 20260504010035 | 19 | 11 | 24.1 | 35.4 | 0.00 | 0.00 | 0.00 | 29 | 1005.6 |
| 20260504004533 | 19 | 5 | 29.0 | 40.2 | 0.00 | 0.00 | 0.00 | 28 | 1005.6 |
| 20260504003032 | 19 | 348 | 22.5 | 38.6 | 0.00 | 0.00 | 0.00 | 28 | 1005.7 |
| 20260504001538 | 20 | 355 | 29.0 | 48.3 | 0.00 | 0.00 | 0.00 | 29 | 1005.7 |
| 20260504000030 | 20 | 19 | 35.4 | 46.7 | 0.00 | 0.00 | 0.00 | 29 | 1005.5 |
| 20260503234530 | 21 | 355 | 30.6 | 49.9 | 0.00 | 0.00 | 0.00 | 28 | 1005.5 |
| 20260503233031 | 21 | 360 | 32.2 | 45.1 | 0.00 | 0.00 | 0.00 | 27 | 1005.4 |
| 20260503231531 | 21 | 327 | 33.8 | 48.3 | 0.00 | 0.00 | 0.00 | 25 | 1005.2 |
| 20260503230039 | 22 | 335 | 33.8 | 54.7 | 0.00 | 0.00 | 0.00 | 25 | 1005.2 |
| 20260503224528 | 23 | 339 | 29.0 | 41.8 | 0.00 | 0.00 | 0.00 | 24 | 1005.0 |
| 20260503223028 | 23 | 334 | 19.3 | 51.5 | 0.00 | 0.00 | 0.00 | 24 | 1005.1 |
| 20260503221530 | 23 | 321 | 30.6 | 59.5 | 0.00 | 0.00 | 0.00 | 22 | 1005.3 |
| 20260503220026 | 23 | 319 | 45.1 | 56.3 | 0.00 | 0.00 | 0.00 | 21 | 1005.2 |
| 20260503214536 | 23 | 306 | 35.4 | 54.7 | 0.00 | 0.00 | 0.00 | 21 | 1005.2 |
| 20260503213024 | 23 | 286 | 24.1 | 45.1 | 0.00 | 0.00 | 0.00 | 24 | 1005.5 |
| 20260503211522 | 23 | 291 | 30.6 | 53.1 | 0.00 | 0.00 | 0.00 | 24 | 1005.6 |
| 20260503210020 | 23 | 319 | 29.0 | 53.1 | 0.00 | 0.00 | 0.00 | 24 | 1006.1 |
| 20260503204517 | 23 | 336 | 27.4 | 41.8 | 0.00 | 0.00 | 0.00 | 25 | 1006.2 |
| 20260503203017 | 22 | 331 | 22.5 | 45.1 | 0.00 | 0.00 | 0.00 | 26 | 1006.5 |
| 20260503201515 | 22 | 309 | 12.9 | 48.3 | 0.00 | 0.00 | 0.00 | 28 | 1006.7 |
| 20260503200013 | 22 | 311 | 19.3 | 49.9 | 0.00 | 0.00 | 0.00 | 27 | 1007.0 |
| 20260503194511 | 22 | 265 | 25.7 | 38.6 | 0.00 | 0.00 | 0.00 | 27 | 1007.1 |
| 20260503193016 | 22 | 279 | 29.0 | 40.2 | 0.00 | 0.00 | 0.00 | 26 | 1007.2 |
| 20260503191518 | 22 | 315 | 24.1 | 40.2 | 0.00 | 0.00 | 0.00 | 28 | 1007.5 |
| 20260503190007 | 22 | 324 | 24.1 | 43.5 | 0.00 | 0.00 | 0.00 | 27 | 1007.8 |
| 20260503184503 | 21 | 327 | 17.7 | 37.0 | 0.00 | 0.00 | 0.00 | 28 | 1008.0 |
| 20260503183059 | 22 | 273 | 22.5 | 35.4 | 0.00 | 0.00 | 0.00 | 28 | 1008.2 |
| 20260503181557 | 21 | 304 | 20.9 | 38.6 | 0.00 | 0.00 | 0.00 | 29 | 1008.2 |
| 20260503180100 | 20 | 312 | 17.7 | 32.2 | 0.00 | 0.00 | 0.00 | 32 | 1008.7 |
| 20260503174554 | 19 | 309 | 19.3 | 29.0 | 0.00 | 0.00 | 0.00 | 33 | 1009.0 |
| 20260503173053 | 20 | 305 | 20.9 | 32.2 | 0.00 | 0.00 | 0.00 | 30 | 1009.0 |
| 20260503171550 | 20 | 316 | 14.5 | 29.0 | 0.00 | 0.00 | 0.00 | 32 | 1009.1 |